Glasgow, KY

10:24 AM CST on January 22, 2018 (GMT -0600)
Glasgow Municipal

Weather History for KGLW - January, 2013

Change the Weather History Date:

Friday, January 11, 2013

  Actual Average Record
Temperature  
Mean Temperature 62 °F -  
Max Temperature 68 °F 38 °F 68 °F (2013)
Min Temperature 55 °F 22 °F -7 °F (1977)
Degree Days  
Heating Degree Days 4    
Growing Degree Days 12 (Base 50)    
Moisture  
Dew Point 40 °F    
Average Humidity 49    
Maximum Humidity 84    
Minimum Humidity 22    
Precipitation  
Precipitation 0.20 in - - ()
Sea Level Pressure  
Sea Level Pressure 29.99 in    
Wind  
Wind Speed 10 mph (SSW)    
Max Wind Speed 20 mph    
Max Gust Speed 33 mph    
Visibility 10 miles    
Events Rain    
Averages and records for this station are not official NWS values.
T = Trace of Precipitation, MM = Missing Value Source: NWS Daily Summary

Daily Weather History Graph

Daily Weather History Graph

Search for Another Location

Airport or City:

Trip Planner

Search our weather history database for the weather conditions in past years. The results will help you decide how hot, cold, wet, or windy it might be!

Date:

Astronomy

Jan. 11, 2013 Rise Set
Actual Time 6:57 AM CST 4:46 PM CST
Civil Twilight 6:28 AM CST 5:15 PM CST
Nautical Twilight 5:56 AM CST 5:47 PM CST
Astronomical Twilight 5:25 AM CST 6:18 PM CST
Moon 6:30 AM CST (1/11) 5:02 PM CST (1/11)
Length of Visible Light 10h 46m
Length of Day
9h 49m
Waning Crescent, 0% of the Moon is Illuminated
Jan 11
Waning Crescent
Jan 11
New
Jan 18
First Quarter
Jan 26
Full
Feb 3
Last Quarter

Hourly Weather History & Observations

Time (CST) Temp. Dew Point Humidity Pressure Visibility Wind Dir Wind Speed Gust Speed Precip Events Conditions
12:15 AM 63.5 °F 33.8 °F 33% 30.02 in 10.0 mi South 10.4 mph 20.7 mph N/A   Mostly Cloudy
12:35 AM 63.3 °F 34.0 °F 33% 30.02 in 10.0 mi South 9.2 mph 17.3 mph N/A   Overcast
12:55 AM 63.1 °F 34.3 °F 34% 30.00 in 10.0 mi SSE 9.2 mph - N/A   Overcast
1:15 AM 63.1 °F 34.9 °F 35% 29.99 in 10.0 mi South 11.5 mph 18.4 mph N/A   Overcast
1:35 AM 63.5 °F 35.1 °F 35% 29.99 in 10.0 mi South 8.1 mph 16.1 mph N/A   Overcast
1:55 AM 63.3 °F 36.5 °F 37% 29.99 in 7.0 mi SSE 12.7 mph 20.7 mph N/A   Drizzle
2:15 AM 61.7 °F 39.7 °F 44% 29.98 in 7.0 mi SSE 10.4 mph 17.3 mph N/A   Drizzle
2:35 AM 61.0 °F 42.1 °F 50% 29.97 in 10.0 mi SSE 12.7 mph 18.4 mph N/A   Drizzle
2:55 AM 61.2 °F 42.4 °F 50% 29.96 in 10.0 mi SSE 13.8 mph 20.7 mph N/A   Overcast
3:15 AM 61.0 °F 45.1 °F 56% 29.95 in 10.0 mi SSE 12.7 mph 19.6 mph N/A   Light Drizzle
3:35 AM 61.0 °F 49.6 °F 66% 29.94 in 10.0 mi South 12.7 mph 21.9 mph N/A   Light Drizzle
3:55 AM 61.2 °F 50.4 °F 68% 29.93 in 10.0 mi South 13.8 mph 21.9 mph N/A   Overcast
4:15 AM 61.2 °F 50.0 °F 67% 29.93 in 7.0 mi South 12.7 mph 19.6 mph N/A   Overcast
4:35 AM 60.8 °F 52.7 °F 75% 29.94 in 7.0 mi South 12.7 mph 20.7 mph 0.01 in Rain Rain
4:55 AM 60.3 °F 54.3 °F 81% 29.94 in 7.0 mi South 10.4 mph 17.3 mph 0.02 in Rain Rain
5:15 AM 60.3 °F 54.9 °F 82% 29.94 in 7.0 mi South 10.4 mph - N/A   Overcast
5:35 AM 60.3 °F 55.2 °F 83% 29.98 in 4.0 mi WNW 18.4 mph 25.3 mph 0.02 in Rain Rain
5:55 AM 57.4 °F 51.6 °F 81% 29.99 in 4.0 mi West 12.7 mph - 0.13 in Rain Rain
6:15 AM 55.9 °F 50.7 °F 83% 30.00 in 7.0 mi West 10.4 mph 16.1 mph 0.01 in Rain Rain
6:35 AM 55.8 °F 50.2 °F 82% 30.01 in 10.0 mi WSW 10.4 mph - 0.02 in Rain Rain
6:55 AM 55.8 °F 50.4 °F 82% 30.01 in 10.0 mi West 5.8 mph - 0.04 in Rain Rain
7:15 AM 55.8 °F 50.5 °F 83% 30.01 in 10.0 mi SSW 5.8 mph - 0.01 in Rain Light Rain
7:35 AM 55.8 °F 50.5 °F 83% 30.03 in 10.0 mi SW 4.6 mph - 0.01 in Rain Rain
7:55 AM 55.8 °F 50.9 °F 84% 30.03 in 10.0 mi SW 4.6 mph - 0.01 in Rain Rain
8:15 AM 55.9 °F 50.7 °F 83% 30.04 in 10.0 mi SW 4.6 mph - N/A   Overcast
8:35 AM 56.1 °F 50.4 °F 81% 30.04 in 10.0 mi SW 6.9 mph - N/A   Overcast
8:55 AM 57.0 °F 47.8 °F 71% 30.04 in 10.0 mi SW 6.9 mph - N/A   Mostly Cloudy
9:15 AM 58.8 °F 41.2 °F 52% 30.04 in 10.0 mi WSW 6.9 mph - N/A   Clear
9:35 AM 60.1 °F 36.9 °F 42% 30.05 in 10.0 mi WSW 10.4 mph 16.1 mph N/A   Mostly Cloudy
9:55 AM 61.7 °F 34.2 °F 36% 30.05 in 10.0 mi WSW 13.8 mph - N/A   Overcast
10:15 AM 62.1 °F 32.2 °F 33% 30.05 in 10.0 mi SW 10.4 mph 17.3 mph N/A   Overcast
10:35 AM 62.8 °F 30.6 °F 30% 30.04 in 10.0 mi WSW 16.1 mph 19.6 mph N/A   Overcast
10:55 AM 63.0 °F 29.3 °F 28% 30.04 in 10.0 mi WSW 12.7 mph 16.1 mph N/A   Overcast
11:15 AM 64.9 °F 27.9 °F 25% 30.02 in 10.0 mi WSW 10.4 mph 18.4 mph N/A   Mostly Cloudy
11:35 AM 64.6 °F 29.1 °F 26% 30.01 in 10.0 mi SW 10.4 mph - N/A   Overcast
11:55 AM 65.5 °F 28.2 °F 25% 30.00 in 10.0 mi WSW 10.4 mph 18.4 mph N/A   Mostly Cloudy
12:15 PM 66.4 °F 28.9 °F 25% 29.99 in 10.0 mi WSW 19.6 mph 33.4 mph N/A   Mostly Cloudy
12:35 PM 67.6 °F 28.4 °F 23% 29.98 in 10.0 mi SW 13.8 mph 23.0 mph N/A   Scattered Clouds
12:55 PM 68.2 °F 27.9 °F 22% 29.98 in 10.0 mi WSW 17.3 mph 21.9 mph N/A   Scattered Clouds
1:15 PM 68.0 °F 29.3 °F 24% 29.98 in 10.0 mi SW 16.1 mph 21.9 mph N/A   Mostly Cloudy
1:55 PM 68.0 °F 31.1 °F 25% 29.97 in 10.0 mi SSW 11.5 mph 19.6 mph N/A   Mostly Cloudy
2:15 PM 68.2 °F 30.9 °F 25% 29.98 in 10.0 mi SW 16.1 mph 20.7 mph N/A   Mostly Cloudy
2:35 PM 67.8 °F 31.1 °F 26% 29.98 in 10.0 mi SW 15.0 mph 24.2 mph N/A   Overcast
2:55 PM 68.2 °F 30.6 °F 25% 29.98 in 10.0 mi SW 9.2 mph 19.6 mph N/A   Mostly Cloudy
3:15 PM 68.4 °F 30.9 °F 25% 29.98 in 10.0 mi SW 11.5 mph - N/A   Scattered Clouds
3:35 PM 68.4 °F 29.1 °F 23% 29.98 in 10.0 mi SW 15.0 mph 20.7 mph N/A   Scattered Clouds
3:55 PM 67.5 °F 28.9 °F 24% 29.98 in 10.0 mi SSW 13.8 mph 19.6 mph N/A   Clear
4:15 PM 66.9 °F 29.3 °F 24% 29.97 in 10.0 mi SW 6.9 mph - N/A   Scattered Clouds
4:35 PM 65.8 °F 30.9 °F 27% 29.98 in 10.0 mi SW 6.9 mph - N/A   Scattered Clouds
4:55 PM 64.8 °F 32.0 °F 29% 29.98 in 10.0 mi SW 6.9 mph - N/A   Clear
5:15 PM 64.0 °F 32.0 °F 30% 29.99 in 10.0 mi SSW 8.1 mph - N/A   Clear
5:35 PM 63.5 °F 32.0 °F 31% 29.99 in 10.0 mi SW 4.6 mph - N/A   Clear
5:55 PM 62.4 °F 32.5 °F 33% 29.99 in 10.0 mi SSW 3.5 mph - N/A   Clear
6:15 PM 62.2 °F 32.9 °F 33% 29.98 in 10.0 mi SSW 3.5 mph - N/A   Clear
6:35 PM 61.3 °F 33.8 °F 36% 29.99 in 10.0 mi SSW 4.6 mph - N/A   Clear
6:55 PM 60.3 °F 34.2 °F 38% 29.98 in 10.0 mi SSW 3.5 mph - N/A   Clear
7:15 PM 58.8 °F 34.9 °F 41% 29.99 in 10.0 mi SW 3.5 mph - N/A   Clear
7:35 PM 57.4 °F 35.4 °F 44% 29.99 in 10.0 mi Calm Calm - N/A   Clear
7:55 PM 56.7 °F 37.0 °F 48% 29.99 in 10.0 mi South 4.6 mph - N/A   Clear
8:15 PM 57.7 °F 37.4 °F 47% 30.00 in 10.0 mi SSW 4.6 mph - N/A   Clear
8:35 PM 59.0 °F 38.7 °F 47% 30.00 in 10.0 mi SSW 4.6 mph - N/A   Clear
8:55 PM 59.2 °F 44.2 °F 58% 30.01 in 10.0 mi SSW 5.8 mph - N/A   Clear
9:15 PM 59.5 °F 51.4 °F 75% 30.01 in 10.0 mi SSW 5.8 mph - N/A   Scattered Clouds
9:35 PM 60.1 °F 52.0 °F 75% 30.01 in 10.0 mi SSW 4.6 mph - N/A   Clear
9:55 PM 59.9 °F 52.7 °F 77% 30.01 in 10.0 mi SSW 5.8 mph - N/A   Clear
10:15 PM 60.3 °F 53.2 °F 78% 30.01 in 10.0 mi SSW 6.9 mph - N/A   Clear
10:35 PM 60.8 °F 51.4 °F 71% 30.01 in 10.0 mi SSW 9.2 mph - N/A   Scattered Clouds
10:55 PM 61.2 °F 50.2 °F 67% 30.00 in 10.0 mi SSW 8.1 mph - N/A   Scattered Clouds
11:15 PM 61.7 °F 50.5 °F 67% 30.00 in 10.0 mi SSW 6.9 mph - N/A   Mostly Cloudy
11:35 PM 62.4 °F 50.5 °F 65% 30.00 in 10.0 mi South 9.2 mph - N/A   Overcast